Weather History for K06D - September, 2012

Change the Weather History Date:

Wednesday, September 19, 2012

  Actual Average (KRUG) Record (KRUG)
Temperature  
Mean Temperature 56 °F -  
Max Temperature 64 °F 65 °F 88 °F (1960)
Min Temperature 48 °F 44 °F 25 °F (1957)
Degree Days  
Heating Degree Days 9    
Growing Degree Days 6 (Base 50)    
Moisture  
Dew Point 33 °F    
Average Humidity 45    
Maximum Humidity 71    
Minimum Humidity 27    
Precipitation  
Precipitation 0.00 in - - ()
Sea Level Pressure  
Sea Level Pressure 29.78 in    
Wind  
Wind Speed 25 mph (NW)    
Max Wind Speed 39 mph    
Max Gust Speed 52 mph    
Visibility 10 miles    
Events      
Averages and records for this station are not official NWS values.
T = Trace of Precipitation, MM = Missing Value Source: NWS Daily Summary

Daily Weather History Graph

Daily Weather History Graph

Search for Another Location

Airport or City:

Trip Planner

Search our weather history database for the weather conditions in past years. The results will help you decide how hot, cold, wet, or windy it might be!

Date:

Astronomy

Sep. 19, 2012 Rise Set
Actual Time 7:21 AM CDT 7:41 PM CDT
Civil Twilight 6:49 AM CDT 8:13 PM CDT
Nautical Twilight 6:12 AM CDT 8:50 PM CDT
Astronomical Twilight 5:33 AM CDT 9:29 PM CDT
Moon 12:00 PM CDT (9/19) 9:24 PM CDT (9/19)
Length of Visible Light 13h 23m
Length of Day
12h 20m
Waxing Crescent, 17% of the Moon is Illuminated
Sep 19
Waxing Crescent
Sep 22
First Quarter
Sep 29
Full
Oct 8
Last Quarter
Oct 15
New

Hourly Weather History & Observations

Time (CDT) Temp. Dew Point Humidity Pressure Visibility Wind Dir Wind Speed Gust Speed Precip Events Conditions
12:15 AM 64.4 °F 37.4 °F 37% 29.60 in 10.0 mi NW 20.7 mph 27.6 mph N/A   Clear
12:35 AM 64.4 °F 37.4 °F 37% 29.61 in 10.0 mi WNW 21.9 mph 29.9 mph N/A   Mostly Cloudy
12:55 AM 62.6 °F 37.4 °F 39% 29.61 in 10.0 mi NW 20.7 mph 34.5 mph N/A   Mostly Cloudy
1:15 AM 62.6 °F 37.4 °F 39% 29.62 in 10.0 mi NW 23.0 mph 31.1 mph N/A   Scattered Clouds
1:35 AM 59.0 °F 39.2 °F 48% 29.62 in 10.0 mi NW 18.4 mph 29.9 mph N/A   Scattered Clouds
1:55 AM 59.0 °F 41.0 °F 51% 29.63 in 10.0 mi NW 26.5 mph 32.2 mph N/A   Scattered Clouds
2:15 AM 59.0 °F 41.0 °F 51% 29.64 in 10.0 mi NW 27.6 mph 35.7 mph N/A   Clear
2:35 AM 57.2 °F 41.0 °F 55% 29.64 in 10.0 mi NW 24.2 mph 33.4 mph N/A   Clear
2:55 AM 57.2 °F 41.0 °F 55% 29.64 in 10.0 mi NW 25.3 mph 31.1 mph N/A   Clear
3:15 AM 57.2 °F 41.0 °F 55% 29.64 in 10.0 mi NW 21.9 mph 33.4 mph N/A   Clear
3:35 AM 55.4 °F 41.0 °F 58% 29.64 in 10.0 mi NW 18.4 mph 31.1 mph N/A   Clear
3:55 AM 55.4 °F 41.0 °F 58% 29.63 in 10.0 mi NW 23.0 mph 29.9 mph N/A   Clear
4:15 AM 55.4 °F 41.0 °F 58% 29.64 in 10.0 mi NW 20.7 mph 31.1 mph N/A   Clear
4:55 AM 53.6 °F 41.0 °F 62% 29.65 in 10.0 mi NW 31.1 mph 38.0 mph N/A   Clear
5:15 AM 53.6 °F 41.0 °F 62% 29.65 in 10.0 mi NW 25.3 mph 32.2 mph N/A   Clear
5:35 AM 53.6 °F 41.0 °F 62% 29.66 in 10.0 mi NW 25.3 mph 35.7 mph N/A   Clear
5:55 AM 51.8 °F 41.0 °F 67% 29.67 in 10.0 mi NW 24.2 mph 38.0 mph N/A   Clear
6:15 AM 50.0 °F 41.0 °F 71% 29.68 in 10.0 mi NW 27.6 mph 36.8 mph N/A   Clear
6:35 AM 50.0 °F 41.0 °F 71% 29.68 in 10.0 mi NW 28.8 mph 36.8 mph N/A   Clear
6:55 AM 50.0 °F 41.0 °F 71% 29.70 in 10.0 mi NW 27.6 mph 40.3 mph N/A   Clear
7:15 AM 50.0 °F 41.0 °F 71% 29.70 in 10.0 mi NW 21.9 mph 39.1 mph N/A   Clear
7:35 AM 48.2 °F 39.2 °F 71% 29.71 in 10.0 mi NW 28.8 mph 36.8 mph N/A   Clear
7:55 AM 50.0 °F 39.2 °F 66% 29.72 in 10.0 mi NW 29.9 mph 44.9 mph N/A   Clear
8:15 AM 50.0 °F 39.2 °F 66% 29.72 in 10.0 mi NW 34.5 mph 43.7 mph N/A   Clear
8:35 AM 50.0 °F 39.2 °F 66% 29.73 in 10.0 mi NW 31.1 mph 40.3 mph N/A   Clear
8:55 AM 50.0 °F 39.2 °F 66% 29.74 in 10.0 mi NW 29.9 mph 46.0 mph N/A   Clear
9:15 AM 50.0 °F 39.2 °F 66% 29.74 in 10.0 mi NW 34.5 mph 43.7 mph N/A   Partly Cloudy
9:55 AM 51.8 °F 37.4 °F 58% 29.75 in 10.0 mi WNW 33.4 mph 42.6 mph N/A   Overcast
10:35 AM 53.6 °F 35.6 °F 51% 29.77 in 10.0 mi NW 35.7 mph 42.6 mph N/A   Clear
10:55 AM 53.6 °F 35.6 °F 51% 29.78 in 10.0 mi NW 34.5 mph 47.2 mph N/A   Scattered Clouds
11:15 AM 53.6 °F 35.6 °F 51% 29.79 in 10.0 mi NW 31.1 mph 51.8 mph N/A   Scattered Clouds
11:35 AM 53.6 °F 33.8 °F 47% 29.80 in 10.0 mi NW 32.2 mph 42.6 mph N/A   Mostly Cloudy
11:55 AM 53.6 °F 33.8 °F 47% 29.80 in 10.0 mi NNW 28.8 mph 43.7 mph N/A   Mostly Cloudy
12:15 PM 55.4 °F 32.0 °F 41% 29.81 in 10.0 mi NW 33.4 mph 42.6 mph N/A   Mostly Cloudy
12:35 PM 55.4 °F 32.0 °F 41% 29.82 in 10.0 mi NNW 34.5 mph 43.7 mph N/A   Partly Cloudy
12:55 PM 57.2 °F 32.0 °F 38% 29.82 in 10.0 mi NW 29.9 mph 41.4 mph N/A   Partly Cloudy
1:15 PM 57.2 °F 32.0 °F 38% 29.82 in 10.0 mi NW 35.7 mph 47.2 mph N/A   Partly Cloudy
1:35 PM 57.2 °F 32.0 °F 38% 29.82 in 10.0 mi NW 33.4 mph 47.2 mph N/A   Clear
1:55 PM 59.0 °F 30.2 °F 34% 29.83 in 10.0 mi NW 29.9 mph 46.0 mph N/A   Clear
2:15 PM 59.0 °F 28.4 °F 31% 29.83 in 10.0 mi NW 34.5 mph 46.0 mph N/A   Clear
2:35 PM 59.0 °F 28.4 °F 31% 29.83 in 10.0 mi NW 39.1 mph 49.5 mph N/A   Clear
2:55 PM 59.0 °F 28.4 °F 31% 29.83 in 10.0 mi NW 36.8 mph 46.0 mph N/A   Clear
3:15 PM 59.0 °F 28.4 °F 31% 29.83 in 10.0 mi NNW 34.5 mph 49.5 mph N/A   Clear
3:35 PM 59.0 °F 28.4 °F 31% 29.83 in 10.0 mi NW 31.1 mph 47.2 mph N/A   Clear
3:55 PM 60.8 °F 28.4 °F 29% 29.84 in 10.0 mi NW 29.9 mph 42.6 mph N/A   Clear
4:15 PM 59.0 °F 26.6 °F 29% 29.85 in 10.0 mi NW 32.2 mph 44.9 mph N/A   Clear
4:35 PM 59.0 °F 26.6 °F 29% 29.86 in 10.0 mi NW 34.5 mph 46.0 mph N/A   Clear
4:55 PM 59.0 °F 26.6 °F 29% 29.86 in 10.0 mi NW 35.7 mph 40.3 mph N/A   Clear
5:15 PM 59.0 °F 26.6 °F 29% 29.86 in 10.0 mi NW 32.2 mph 42.6 mph N/A   Clear
5:35 PM 59.0 °F 24.8 °F 27% 29.88 in 10.0 mi NNW 26.5 mph 40.3 mph N/A   Clear
5:55 PM 57.2 °F 23.0 °F 27% 29.89 in 10.0 mi NNW 20.7 mph 40.3 mph N/A   Clear
6:15 PM 57.2 °F 23.0 °F 27% 29.89 in 10.0 mi NNW 24.2 mph 34.5 mph N/A   Clear
6:35 PM 57.2 °F 23.0 °F 27% 29.90 in 10.0 mi NNW 25.3 mph 34.5 mph N/A   Clear
6:55 PM 57.2 °F 23.0 °F 27% 29.90 in 10.0 mi NNW 24.2 mph 32.2 mph N/A   Clear
7:15 PM 55.4 °F 23.0 °F 29% 29.91 in 10.0 mi NNW 23.0 mph 26.5 mph N/A   Clear
7:35 PM 55.4 °F 23.0 °F 29% 29.91 in 10.0 mi NNW 20.7 mph 28.8 mph N/A   Clear
8:15 PM 53.6 °F 24.8 °F 33% 29.92 in 10.0 mi NW 13.8 mph - N/A   Clear
8:35 PM 53.6 °F 24.8 °F 33% 29.93 in 10.0 mi NW 12.7 mph 19.6 mph N/A   Clear
8:55 PM 53.6 °F 24.8 °F 33% 29.93 in 10.0 mi NW 13.8 mph 19.6 mph N/A   Clear
9:15 PM 53.6 °F 24.8 °F 33% 29.94 in 10.0 mi NW 13.8 mph - N/A   Clear
9:35 PM 53.6 °F 24.8 °F 33% 29.94 in 10.0 mi NW 12.7 mph 20.7 mph N/A   Clear
9:55 PM 51.8 °F 26.6 °F 38% 29.94 in 10.0 mi NW 15.0 mph 21.9 mph N/A   Clear
10:15 PM 50.0 °F 26.6 °F 40% 29.94 in 10.0 mi NW 16.1 mph - N/A   Clear
10:35 PM 50.0 °F 26.6 °F 40% 29.95 in 10.0 mi NW 12.7 mph - N/A   Clear
10:55 PM 50.0 °F 26.6 °F 40% 29.95 in 10.0 mi NW 13.8 mph - N/A   Clear
11:35 PM 50.0 °F 26.6 °F 40% 29.96 in 10.0 mi NW 16.1 mph - N/A   Clear
11:55 PM 50.0 °F 26.6 °F 40% 29.95 in 10.0 mi NW 15.0 mph 20.7 mph N/A   Clear